TITAN 3C TRANSTAGE DEB, 38698

Orbit data source: Space-Track

TITAN 3C TRANSTAGE DEB, 38698 is space debris in GEO originally from a launch on Thu, 26 Sep 1968 UTC launched from the Air Force Eastern Test Range (AFETR). Debris objects in space refer to the collection of defunct objects orbiting the Earth. Examples of debris include non-operational satellites, rocket bodies, and fragments generated from explosions, collisions, or faulty payload assembly.

Loading next visibility...
Identifier
38698, 1968-081Y
Orbit
GEO
Country
Flag of USUS
Related business
Manufacturer
Unknown
Mission
Spacecraft
Bus & Motor
Unknown
Mass
Unknown
Launch date (UTC)
1968-09-26 (57 years ago)
Launch vehicle
Unknown
Launch site
Air Force Eastern Test Range (AFETR)
Object type
Payload
Rocket body
Debris
Shape & HBR
Unknown shape, 1.1 m
Radar Cross Section
Large (>1 m²)

Expand to show TLE details & history
Last TLE update: 2 days ago

TLE from 2 days ago
0 TITAN 3C TRANSTAGE DEB
1 38698U 68081Y   25346.48435583 -.00000048  00000-0  00000-0 0  9990
2 38698   3.0794  72.2521 0221788 179.8433 179.8210  1.04402482 83825
Epoch: 2025-12-12T11:37Z
TLE epoch observation values (Epoch: 2025-12-12T11:37:28.343Z)
Latitude
Longitude
176.12934°
Altitude
35,580.205 km
Speed
3.048 km/s
True Right ascension
04h 47m 41s
True Declination
0° 00' 00"
Sunlit
Object was in daylight at epoch
Visualization orbit readout
Latitude
Unknown
Longitude
Unknown
Altitude
Unknown
Speed
Unknown
Apparent Right ascension
Unknown
Apparent Declination
Unknown
Sunlit
N/A
Visualization observer readout
Local Sidereal Time
01:36:42
Azimuth
Unknown
Elevation
Unknown
Doppler factor
Unknown
Orbital elements
Apogee altitude
35,578.41 km
Perigee altitude
33,757.7 km
Semi-major axis
41,046.192 km
Eccentricity
0.02218
Inclination
3.0794°
RAAN
72.2521°
Arg. of periapsis
179.8433°
True anomaly
179.82873°
Mean anomaly
179.821°
Eccentric anomaly
179.82488°
Mean motion
0.261 °/min
Orbital period
1,379.33 mins
BSTAR
0
Loading maneuver chart data...
Computing Atmospheric mass density...

Documentation

Showing up to 5 results
|